星链-36816(STARLINK-36816)

导读 | 豆包AI

STARLINK-36816是美国于2026年2月21日发射的Starlink星链系列卫星,隶属于SpaceX公司的星链项目,该项目旨在构建全球卫星互联网星座,为全球各个地区提供高速、低延迟的宽带网络服务,此卫星发射后将加入庞大的星链卫星网络,进一步拓展星链系统的全球覆盖能力与服务容量。

基本信息
目录编号:
67891
目录名称:
STARLINK-36816
国际标识:
2026-035N
轨道中心:
EARTH
卫星名称:
星链-36816
卫星全名:
星链-36816(STARLINK-36816)
卫星状态:
在轨 (已飞行21 天)
发射日期:
2026-02-21 UTC
国别 :
美国 (US)
星等 :
--
轨道信息
数据来源 国际轨道数据
星历时间: 2026-03-14T14:00:02+0800
13小时前
查看轨道信息
半长轴: 6706.219km
偏心率: 0.0001622
轨道倾角: 97.287°
近地点辐角 93.934°
升交点赤经 5.886°
平近点角 241.117°
近地点: 326.994km
远地点: 329.17km
周期: 91.091分钟
每日圈数: 15.808339
详细信息
固有亮度:
5
最大亮度:
2.5
卫星平台:
Starlink V1.0
覆盖范围:
全球
运营商:
太空探索技术公司
运营商所在国:
美国
制造商(研发单位):
太空探索技术公司
制造商所在国:
美国
使用方式:
暂无
卫星简介
Starlink 计划是 SpaceX 推出的全球卫星互联网项目,通过发射低轨道卫星,为全球尤其是偏远地区提供高速、低延迟的互联网服务。自 2019 年起,Starlink 已部署数千颗卫星,旨在缩小全球数字鸿沟,推动互联网普及。该项目还为军事、航空等行业提供通信支持,带来广泛经济效益。
2D轨道图
3D轨道图
轨道高度分析图
轨道倾角分析图
轨道综合分析图
查看轨道综合分析图